This is the latest recevied weather packets stored in our database for station/object N8HON. If no packets are shown the sender has not sent any weather packets the latest 10 day(s).
| Time | Temp. | Humidity | Pressure | Rain* | Wind** | Luminosity | Snow |
|---|---|---|---|---|---|---|---|
| 1778209059 | 10° C | 52% | 1011.3 hPa | 0 mm | - | 0 W/m² | - |
| 1778208756 | 8.89° C | 55% | 1011.4 hPa | 0 mm | - | 0 W/m² | - |
| 1778208452 | 9.44° C | 56% | 1011.4 hPa | 0 mm | - | 0 W/m² | - |
| 1778208149 | 9.44° C | 54% | 1011.3 hPa | 0 mm | - | 0 W/m² | - |
| 1778207846 | 9.44° C | 55% | 1011.4 hPa | 0 mm | - | 0 W/m² | - |
| 1778207544 | 9.44° C | 56% | 1011.3 hPa | 0 mm | - | 0 W/m² | - |
| 1778207239 | 10° C | 58% | 1011.2 hPa | 0 mm | - | 0 W/m² | - |
| 1778206936 | 10° C | 57% | 1011.5 hPa | 0 mm | - | 0 W/m² | - |
| 1778206633 | 10° C | 55% | 1011.2 hPa | 0 mm | - | 0 W/m² | - |
| 1778206328 | 10° C | 57% | 1011.2 hPa | 0 mm | - | 0 W/m² | - |
| 1778206026 | 10° C | 57% | 1011.3 hPa | 0 mm | - | 0 W/m² | - |
| 1778205723 | 10° C | 56% | 1011.2 hPa | 0 mm | - | 0 W/m² | - |
| 1778205420 | 10° C | 58% | 1011.5 hPa | 0 mm | - | 0 W/m² | - |
| 1778205117 | 10° C | 57% | 1011 hPa | 0 mm | - | 0 W/m² | - |
| 1778204813 | 10° C | 59% | 1011.1 hPa | 0 mm | - | 0 W/m² | - |
| 1778204509 | 10° C | 55% | 1011.1 hPa | 0 mm | - | 0 W/m² | - |
| 1778204206 | 10° C | 58% | 1011.1 hPa | 0 mm | - | 0 W/m² | - |
| 1778203903 | 10.56° C | 54% | 1010.7 hPa | 0 mm | - | 0 W/m² | - |
| 1778203600 | 10° C | 56% | 1010.7 hPa | 0 mm | - | 0 W/m² | - |
| 1778203297 | 10° C | 57% | 1010.7 hPa | 0 mm | - | 0 W/m² | - |
| 1778202996 | 10.56° C | 56% | 1010.6 hPa | 0 mm | - | 0 W/m² | - |
| 1778202693 | 10° C | 57% | 1010.5 hPa | 0 mm | - | 0 W/m² | - |
| 1778202389 | 10.56° C | 56% | 1010.4 hPa | 0 mm | - | 0 W/m² | - |
| 1778202088 | 10.56° C | 57% | 1010.4 hPa | 0 mm | - | 0 W/m² | - |
| 1778201784 | 10.56° C | 56% | 1010 hPa | 0 mm | - | 0 W/m² | - |
* Rain latest hour (hover to see other rain measurements)
** Current wind speed in m/s (hover to see current wind gust speed)